Change the Weather History Date:

Sunday, November 25, 2012

  Actual Average Record
Temperature  
Mean Temperature 22 °F -  
Max Temperature 26 °F 33 °F 55 °F (1984)
Min Temperature 18 °F 17 °F -8 °F (1985)
Degree Days  
Heating Degree Days 42    
Moisture  
Dew Point 19 °F    
Average Humidity 80    
Maximum Humidity 92    
Minimum Humidity 69    
Precipitation  
Precipitation 0.00 in - - ()
Sea Level Pressure  
Sea Level Pressure 29.94 in    
Wind  
Wind Speed 7 mph (West)    
Max Wind Speed 15 mph    
Max Gust Speed 20 mph    
Visibility 7 miles    
Events Snow    
Averages and records for this station are not official NWS values.
T = Trace of Precipitation, MM = Missing Value Source: NWS Daily Summary

Daily Weather History Graph

Daily Weather History Graph

Search for Another Location

Airport or City:

Trip Planner

Search our weather history database for the weather conditions in past years. The results will help you decide how hot, cold, wet, or windy it might be!

Date:

Astronomy

Nov. 25, 2012 Rise Set
Actual Time 7:20 AM CST 4:21 PM CST
Civil Twilight 6:46 AM CST 4:55 PM CST
Nautical Twilight 6:08 AM CST 5:32 PM CST
Astronomical Twilight 5:32 AM CST 6:08 PM CST
Moon 2:44 PM CST (11/25) 4:27 AM CST (11/25)
Length of Visible Light 10h 08m
Length of Day
9h 01m
Waxing Gibbous, 93% of the Moon is Illuminated
Nov 25
Waxing Gibbous
Nov 28
Full
Dec 6
Last Quarter
Dec 13
New
Dec 19
First Quarter

Hourly Weather History & Observations

Time (CST) Temp. Windchill Dew Point Humidity Pressure Visibility Wind Dir Wind Speed Gust Speed Precip Events Conditions
12:53 AM 24.1 °F 18.2 °F 19.9 °F 84% 29.83 in 10.0 mi SW 4.6 mph - N/A   Overcast
1:51 AM 24.8 °F 19.1 °F 19.4 °F 80% 29.78 in 10.0 mi WSW 4.6 mph - N/A   Overcast
1:53 AM 24.1 °F 18.2 °F 19.9 °F 84% 29.83 in 10.0 mi WSW 4.6 mph - N/A   Overcast
2:53 AM 25.0 °F 18.1 °F 19.9 °F 81% 29.83 in 10.0 mi WSW 5.8 mph - N/A   Overcast
3:53 AM 25.0 °F 16.3 °F 19.9 °F 81% 29.83 in 10.0 mi West 8.1 mph - N/A   Overcast
4:53 AM 25.0 °F 16.3 °F 19.9 °F 81% 29.84 in 10.0 mi West 8.1 mph - N/A   Overcast
5:53 AM 25.0 °F 15.5 °F 19.9 °F 81% 29.85 in 10.0 mi West 9.2 mph - N/A   Overcast
6:53 AM 25.0 °F 16.3 °F 21.0 °F 85% 29.86 in 10.0 mi West 8.1 mph - N/A   Overcast
7:22 AM 24.8 °F 16.9 °F 21.2 °F 86% 29.82 in 10.0 mi WSW 6.9 mph - N/A   Overcast
7:53 AM 23.0 °F 13.1 °F 19.0 °F 85% 29.87 in 10.0 mi West 9.2 mph - N/A   Scattered Clouds
8:19 AM 24.8 °F 16.1 °F 19.4 °F 80% 29.84 in 10.0 mi West 8.1 mph - N/A   Mostly Cloudy
8:53 AM 25.0 °F 14.8 °F 19.9 °F 81% 29.88 in 10.0 mi West 10.4 mph - N/A   Overcast
9:53 AM 26.1 °F 17.6 °F 21.0 °F 81% 29.89 in 10.0 mi West 8.1 mph - N/A   Overcast
10:53 AM 26.1 °F 15.6 °F 21.0 °F 81% 29.92 in 10.0 mi West 11.5 mph 18.4 mph N/A   Overcast
11:53 AM 26.1 °F 14.0 °F 19.0 °F 75% 29.92 in 10.0 mi West 15.0 mph - N/A   Overcast
12:53 PM 26.1 °F 15.0 °F 18.0 °F 71% 29.93 in 10.0 mi West 12.7 mph - 0.00 in Snow Light Snow
1:16 PM 26.6 °F 15.7 °F 17.6 °F 69% 29.89 in 8.0 mi West 12.7 mph - 0.00 in Snow Light Snow
1:53 PM 26.1 °F 16.2 °F 18.0 °F 71% 29.94 in 10.0 mi West 10.4 mph - 0.00 in   Overcast
2:44 PM 24.8 °F 14.6 °F 17.6 °F 74% 29.91 in 2.5 mi West 10.4 mph - 0.00 in Snow Light Snow
2:53 PM 25.0 °F 16.3 °F 19.0 °F 78% 29.96 in 1.5 mi WNW 8.1 mph - 0.00 in Snow Light Snow
3:04 PM 24.8 °F 14.6 °F 19.4 °F 80% 29.92 in 3.0 mi West 10.4 mph - 0.00 in Snow Light Snow
3:13 PM 24.8 °F 16.1 °F 17.6 °F 74% 29.92 in 1.8 mi West 8.1 mph - 0.00 in Snow Light Snow
3:24 PM 24.8 °F 16.9 °F 19.4 °F 80% 29.93 in 3.0 mi WNW 6.9 mph - 0.00 in Snow Light Snow
3:46 PM 24.8 °F 17.9 °F 19.4 °F 80% 29.93 in 8.0 mi West 5.8 mph - 0.00 in   Overcast
3:53 PM 24.1 °F 18.2 °F 19.0 °F 81% 29.98 in 9.0 mi West 4.6 mph - 0.00 in   Overcast
4:10 PM 24.8 °F 19.1 °F 19.4 °F 80% 29.94 in 2.5 mi West 4.6 mph - 0.00 in Snow Light Snow
4:24 PM 23.0 °F 17.0 °F 19.4 °F 86% 29.94 in 3.0 mi West 4.6 mph - 0.00 in Snow Light Snow
4:53 PM 21.9 °F 15.7 °F 19.0 °F 89% 29.99 in 10.0 mi WSW 4.6 mph - 0.00 in   Overcast
5:53 PM 24.1 °F 17.0 °F 18.0 °F 77% 30.01 in 8.0 mi West 5.8 mph - 0.00 in Snow Light Snow
6:53 PM 24.1 °F 19.7 °F 19.9 °F 84% 30.02 in 4.0 mi WSW 3.5 mph - 0.00 in Snow Light Snow
7:02 PM 23.0 °F 17.0 °F 19.4 °F 86% 29.98 in 2.0 mi WSW 4.6 mph - 0.00 in Snow Light Snow
7:06 PM 23.0 °F 17.0 °F 19.4 °F 86% 29.98 in 3.0 mi SW 4.6 mph - 0.00 in Snow Light Snow
7:53 PM 23.0 °F 17.0 °F 21.0 °F 92% 30.04 in 10.0 mi SW 4.6 mph - 0.00 in   Overcast
8:53 PM 23.0 °F 15.8 °F 19.9 °F 88% 30.04 in 6.0 mi West 5.8 mph - 0.00 in Snow Light Snow
9:02 PM 24.8 °F 17.9 °F 19.4 °F 80% 30.00 in 2.5 mi West 5.8 mph - 0.00 in Snow Light Snow
9:13 PM 24.8 °F 16.1 °F 19.4 °F 80% 30.02 in 4.0 mi NW 8.1 mph - 0.00 in Snow Light Snow
9:53 PM 23.0 °F 14.7 °F 18.0 °F 81% 30.08 in 6.0 mi NW 6.9 mph - 0.00 in Snow Light Snow
10:46 PM 19.4 °F 6.6 °F 12.2 °F 74% 30.07 in 10.0 mi NW 12.7 mph 19.6 mph 0.00 in   Overcast
10:53 PM 19.9 °F 6.2 °F 12.0 °F 71% 30.12 in 10.0 mi NW 15.0 mph 19.6 mph 0.00 in   Overcast
11:53 PM 18.0 °F 8.7 °F 10.9 °F 74% 30.16 in 10.0 mi WNW 6.9 mph - N/A   Overcast